TimeCST,TemperatureF,Dew PointF,Humidity,Sea Level PressureIn,VisibilityMPH,Wind Direction,Wind SpeedMPH,Gust SpeedMPH,PrecipitationIn,Events,Conditions,WindDirDegrees,DateUTC
12:15 AM,23.0,21.2,93,30.05,2.0,NNE,9.2,-,N/A,Snow,Light Snow,20,2012-12-09 06:15:00
12:35 AM,23.0,19.4,86,30.05,3.0,North,10.4,-,N/A,Snow,Light Snow,10,2012-12-09 06:35:00
12:55 AM,21.2,17.6,86,30.05,5.0,North,13.8,-,N/A,Snow,Light Snow,10,2012-12-09 06:55:00
1:15 AM,19.4,15.8,86,30.05,4.0,North,15.0,-,N/A,Snow,Light Snow,10,2012-12-09 07:15:00
1:35 AM,17.6,15.8,93,30.06,2.5,North,16.1,-,N/A,Snow,Light Snow,10,2012-12-09 07:35:00
1:55 AM,17.6,15.8,93,30.06,3.0,NNE,16.1,-,N/A,Snow,Light Snow,20,2012-12-09 07:55:00
2:15 AM,15.8,14.0,93,30.07,4.0,NNE,16.1,20.7,N/A,Snow,Light Snow,20,2012-12-09 08:15:00
2:35 AM,15.8,12.2,86,30.07,4.0,NNE,13.8,18.4,N/A,Snow,Light Snow,20,2012-12-09 08:35:00
2:55 AM,15.8,12.2,86,30.08,4.0,NNE,16.1,19.6,N/A,Snow,Light Snow,30,2012-12-09 08:55:00
3:15 AM,15.8,12.2,86,30.08,2.5,NNE,12.7,17.3,N/A,Snow,Light Snow,20,2012-12-09 09:15:00
3:35 AM,15.8,12.2,86,30.08,2.5,NNE,12.7,-,N/A,Snow,Light Snow,20,2012-12-09 09:35:00
3:55 AM,15.8,12.2,86,30.08,3.0,NNE,17.3,23.0,N/A,Snow,Light Snow,20,2012-12-09 09:55:00
4:15 AM,14.0,12.2,93,30.09,3.0,NNE,15.0,19.6,N/A,Snow,Light Snow,20,2012-12-09 10:15:00
4:35 AM,14.0,10.4,86,30.09,3.0,NNE,13.8,23.0,N/A,Snow,Light Snow,20,2012-12-09 10:35:00
4:55 AM,12.2,10.4,92,30.09,2.5,NNE,13.8,20.7,N/A,Snow,Light Snow,20,2012-12-09 10:55:00
5:15 AM,12.2,10.4,92,30.10,4.0,NNE,16.1,20.7,N/A,Snow,Light Snow,20,2012-12-09 11:15:00
5:35 AM,12.2,10.4,92,30.11,4.0,NNE,13.8,-,N/A,Snow,Light Snow,20,2012-12-09 11:35:00
6:15 AM,12.2,10.4,92,30.13,3.0,NNE,15.0,-,N/A,Snow,Light Snow,20,2012-12-09 12:15:00
6:35 AM,12.2,10.4,92,30.13,4.0,North,16.1,23.0,N/A,Snow,Light Snow,10,2012-12-09 12:35:00
6:55 AM,12.2,8.6,85,30.14,7.0,North,17.3,-,N/A,,Overcast,10,2012-12-09 12:55:00
7:15 AM,12.2,8.6,85,30.15,7.0,North,17.3,-,N/A,,Overcast,10,2012-12-09 13:15:00
7:36 AM,10.4,8.6,92,30.15,5.0,North,15.0,25.3,N/A,,Overcast,10,2012-12-09 13:36:00
7:55 AM,10.4,6.8,85,30.16,4.0,North,18.4,-,N/A,Snow,Light Snow,360,2012-12-09 13:55:00
8:15 AM,8.6,6.8,92,30.17,4.0,North,16.1,-,N/A,Snow,Light Snow,360,2012-12-09 14:15:00
8:35 AM,8.6,5.0,85,30.18,4.0,North,16.1,-,N/A,Snow,Light Snow,360,2012-12-09 14:35:00
8:55 AM,6.8,3.2,85,30.17,3.0,North,19.6,-,N/A,Snow,Light Snow,360,2012-12-09 14:55:00
9:15 AM,6.8,3.2,85,30.18,4.0,North,19.6,24.2,N/A,Snow,Light Snow,10,2012-12-09 15:15:00
9:35 AM,6.8,3.2,85,30.20,4.0,North,17.3,24.2,N/A,Snow,Light Snow,10,2012-12-09 15:35:00
9:55 AM,6.8,3.2,85,30.21,5.0,North,15.0,18.4,N/A,Snow,Light Snow,360,2012-12-09 15:55:00
10:15 AM,6.8,3.2,85,30.21,7.0,North,17.3,-,N/A,,Mostly Cloudy,360,2012-12-09 16:15:00
10:35 AM,8.6,3.2,79,30.20,10.0,North,19.6,-,N/A,,Mostly Cloudy,360,2012-12-09 16:35:00
10:55 AM,10.4,3.2,73,30.21,10.0,North,17.3,25.3,N/A,,Mostly Cloudy,350,2012-12-09 16:55:00
11:15 AM,10.4,5.0,79,30.20,10.0,North,17.3,-,N/A,,Overcast,360,2012-12-09 17:15:00
11:35 AM,10.4,3.2,73,30.20,10.0,North,20.7,-,N/A,,Mostly Cloudy,360,2012-12-09 17:35:00
11:55 AM,10.4,1.4,67,30.19,10.0,North,19.6,-,N/A,,Scattered Clouds,350,2012-12-09 17:55:00
12:15 PM,10.4,3.2,73,30.18,10.0,North,19.6,23.0,N/A,,Clear,360,2012-12-09 18:15:00
12:35 PM,10.4,1.4,67,30.18,10.0,North,19.6,-,N/A,,Clear,350,2012-12-09 18:35:00
12:55 PM,10.4,-0.4,62,30.18,10.0,North,19.6,-,N/A,,Clear,350,2012-12-09 18:55:00
1:15 PM,8.6,-2.2,62,30.17,10.0,North,20.7,-,N/A,,Clear,350,2012-12-09 19:15:00
1:35 PM,8.6,-2.2,62,30.18,10.0,North,19.6,-,N/A,,Clear,350,2012-12-09 19:35:00
1:55 PM,8.6,-2.2,62,30.17,10.0,NNW,21.9,-,N/A,,Clear,340,2012-12-09 19:55:00
2:15 PM,8.6,-2.2,62,30.16,10.0,North,17.3,-,N/A,,Clear,350,2012-12-09 20:15:00
2:35 PM,8.6,-2.2,62,30.17,10.0,North,21.9,-,N/A,,Clear,350,2012-12-09 20:35:00
2:55 PM,6.8,-4.0,61,30.16,10.0,North,19.6,-,N/A,,Clear,350,2012-12-09 20:55:00
3:15 PM,8.6,-2.2,62,30.17,10.0,NNW,16.1,-,N/A,,Clear,340,2012-12-09 21:15:00
3:35 PM,6.8,-2.2,67,30.17,10.0,North,19.6,-,N/A,,Clear,350,2012-12-09 21:35:00
3:55 PM,6.8,-2.2,67,30.17,10.0,North,16.1,-,N/A,,Clear,350,2012-12-09 21:55:00
4:15 PM,3.2,-2.2,78,30.18,10.0,NNW,17.3,-,N/A,,Clear,340,2012-12-09 22:15:00
4:35 PM,1.4,-4.0,78,30.18,10.0,North,15.0,-,N/A,,Clear,350,2012-12-09 22:35:00
4:55 PM,1.4,-4.0,78,30.18,10.0,North,12.7,-,N/A,,Clear,350,2012-12-09 22:55:00
5:15 PM,-0.4,-5.8,78,30.19,10.0,NNW,13.8,-,N/A,,Clear,340,2012-12-09 23:15:00
5:35 PM,-0.4,-5.8,78,30.19,10.0,NNW,12.7,-,N/A,,Clear,340,2012-12-09 23:35:00
5:55 PM,-0.4,-5.8,78,30.19,10.0,NNW,13.8,17.3,N/A,,Clear,340,2012-12-09 23:55:00
6:15 PM,-0.4,-5.8,78,30.20,10.0,NNW,12.7,-,N/A,,Clear,340,2012-12-10 00:15:00
6:35 PM,-2.2,-5.8,85,30.19,10.0,NNW,13.8,-,N/A,,Clear,340,2012-12-10 00:35:00
6:55 PM,-2.2,-5.8,85,30.19,10.0,NNW,12.7,-,N/A,,Clear,340,2012-12-10 00:55:00
7:15 PM,-5.8,-9.4,84,30.19,10.0,NW,6.9,-,N/A,,Clear,320,2012-12-10 01:15:00
7:35 PM,-5.8,-9.4,84,30.19,10.0,NW,12.7,-,N/A,,Clear,320,2012-12-10 01:35:00
7:55 PM,-7.6,-9.4,92,30.19,10.0,NNW,11.5,-,N/A,,Clear,330,2012-12-10 01:55:00
8:15 PM,-7.6,-9.4,92,30.19,10.0,NNW,11.5,-,N/A,,Mostly Cloudy,340,2012-12-10 02:15:00
8:35 PM,-7.6,-11.2,84,30.18,10.0,NNW,9.2,-,N/A,,Scattered Clouds,340,2012-12-10 02:35:00
8:55 PM,-9.4,-13.0,84,30.17,10.0,NNW,9.2,-,N/A,,Clear,330,2012-12-10 02:55:00
9:15 PM,-9.4,-14.8,77,30.16,10.0,NNW,6.9,-,N/A,,Clear,330,2012-12-10 03:15:00
9:35 PM,-9.4,-14.8,77,30.16,10.0,NNW,6.9,-,N/A,,Clear,340,2012-12-10 03:35:00
9:55 PM,-9.4,-14.8,77,30.15,10.0,NNW,5.8,-,N/A,,Clear,340,2012-12-10 03:55:00
10:15 PM,-11.2,-14.8,84,30.13,10.0,Calm,Calm,-,N/A,,Scattered Clouds,0,2012-12-10 04:15:00
10:35 PM,-9.4,-14.8,77,30.13,10.0,North,5.8,-,N/A,,Mostly Cloudy,360,2012-12-10 04:35:00
10:55 PM,-7.6,-11.2,84,30.13,10.0,North,6.9,-,N/A,,Overcast,350,2012-12-10 04:55:00
11:15 PM,-7.6,-9.4,92,30.12,10.0,Calm,Calm,-,N/A,,Overcast,0,2012-12-10 05:15:00
11:35 PM,-5.8,-9.4,84,30.12,7.0,North,3.5,-,N/A,,Overcast,10,2012-12-10 05:35:00
11:55 PM,-7.6,-9.4,92,30.11,10.0,North,5.8,-,N/A,,Overcast,10,2012-12-10 05:55:00